BADR-5

Last updated on Dec. 5, 2020, 6:14 a.m. UTC

1 36592U 10025A   20339.18199917  .00000162  00000-0  00000-0 0  9994
2 36592   0.0131  47.5077 0003986 161.6851 315.8134  1.00273014 32958
UTC
Height (km)
Latitude
Longitude
Inclination
Orbital Period
UTC large
Height (km)
Speed (km/s)
/
Latitude / Longitude
Inclination (degrees)
Orbital Period (minutes)
Azimuth
Elevation
Range (km)
Doppler Factor
iOS Compass Heading
iOS Angle

Next 30 passes for location: Hong Kong

Rise time Rise Azimuth (degrees) Set time Set Azimuth (degrees) Duration Max altitude (degrees)

No matching passes for this satellites